EW9296 Weather Reports


time (UTC)temp
C
wind
direction
speed
KPH
gust
KPH
rain 1hr
cm
rain 24hr
cm
rain mn
cm
humidity
%
barometer
mb
20260502183018 7 296 3.2 14.5 0.00 0.00 0.00 52 1016.0
20260502181516 7 254 1.6 9.7 0.00 0.00 0.00 49 1016.0
20260502163014 6 321 1.6 11.3 0.00 0.00 0.00 53 1016.7
20260502161510 6 260 3.2 14.5 0.00 0.00 0.00 53 1016.8
20260502151504 6 321 3.2 12.9 0.00 0.00 0.00 51 1016.8
20260502130105 3 333 1.6 8.0 0.00 0.00 0.00 69 1017.1
20260502123111 2 23 0.0 8.0 0.00 0.00 0.00 75 1017.0
20260502121543 1 26 0.0 9.7 0.00 0.00 0.00 76 1017.0
20260502114540 1 309 0.0 0.0 0.00 0.00 0.00 80 1016.9
20260502113037 0 305 0.0 6.4 0.00 0.00 0.00 81 1016.8
20260502111534 0 351 0.0 0.0 0.00 0.00 0.00 82 1016.8
20260502110044 0 355 0.0 6.4 0.00 0.00 0.00 83 1016.6
20260502104530 0 9 0.0 0.0 0.00 0.00 0.00 82 1016.5
20260502103032 0 9 0.0 0.0 0.00 0.00 0.00 81 1016.5
20260502101526 0 9 0.0 0.0 0.00 0.00 0.00 80 1016.4
20260502091518 1 9 0.0 0.0 0.00 0.00 0.00 76 1016.1
20260502071501 3 326 0.0 0.0 0.00 0.00 0.00 68 1015.5
20260502064559 3 326 0.0 0.0 0.00 0.00 0.00 67 1015.6
20260502063102 3 330 0.0 0.0 0.00 0.00 0.00 65 1015.7
20260502061556 3 35 0.0 0.0 0.00 0.00 0.00 64 1015.8
20260502054552 3 268 0.0 0.0 0.00 0.00 0.00 65 1015.9
20260502053052 3 5 0.0 0.0 0.00 0.00 0.00 63 1015.9
20260502051551 4 360 0.0 0.0 0.00 0.00 0.00 64 1015.8
20260502050048 4 360 0.0 0.0 0.00 0.00 0.00 63 1015.8
20260502044546 4 322 0.0 0.0 0.00 0.00 0.00 62 1015.6
20260502043050 4 324 0.0 0.0 0.00 0.00 0.00 62 1015.5
20260502041548 4 317 0.0 0.0 0.00 0.00 0.00 61 1015.4
20260502040041 4 355 0.0 6.4 0.00 0.00 0.00 62 1015.4
20260502034540 4 315 0.0 0.0 0.00 0.00 0.00 62 1015.3
20260502033045 4 44 0.0 6.4 0.00 0.00 0.00 62 1015.2
20260502031538 5 46 0.0 3.2 0.00 0.00 0.00 63 1015.2
20260502030038 5 49 3.2 9.7 0.00 0.00 0.00 63 1015.2
20260502024545 5 355 0.0 3.2 0.00 0.00 0.00 61 1015.2
20260502023037 5 5 1.6 9.7 0.00 0.00 0.00 61 1015.0
20260502021535 5 336 1.6 11.3 0.00 0.00 0.00 61 1015.0
20260502020033 5 281 1.6 9.7 0.00 0.00 0.00 61 1014.8
20260502014534 5 355 1.6 8.0 0.00 0.00 0.00 61 1014.6
20260502013030 5 255 0.0 0.0 0.00 0.00 0.00 62 1014.4
20260502011530 5 287 0.0 8.0 0.00 0.00 0.00 63 1014.2
20260502010033 5 250 0.0 0.0 0.00 0.00 0.00 66 1014.1
20260502004545 5 250 0.0 0.0 0.00 0.00 0.00 66 1014.1
20260502003026 6 277 0.0 1.6 0.00 0.00 0.00 67 1014.1
20260502001529 6 5 1.6 6.4 0.00 0.00 0.00 66 1013.9
20260502000029 6 360 0.0 6.4 0.00 0.00 0.00 65 1013.9
20260501234524 6 355 0.0 8.0 0.00 0.00 0.00 65 1013.8
20260501233022 6 273 1.6 6.4 0.00 0.00 0.00 65 1013.7
20260501231522 6 306 1.6 11.3 0.00 0.00 0.00 62 1013.7
20260501230026 6 287 1.6 8.0 0.00 0.00 0.00 65 1013.6
20260501224521 6 360 0.0 11.3 0.00 0.00 0.00 63 1013.5
20260501223021 6 282 1.6 11.3 0.00 0.00 0.00 64 1013.5
20260501221520 6 320 1.6 8.0 0.00 0.00 0.00 63 1013.5
20260501220019 6 277 0.0 9.7 0.00 0.00 0.00 63 1013.4
20260501214519 6 328 1.6 6.4 0.00 0.00 0.00 64 1013.4
20260501213030 6 257 3.2 11.3 0.00 0.00 0.00 63 1013.4
20260501211516 7 323 3.2 9.7 0.00 0.00 0.00 64 1013.2
20260501210033 7 291 3.2 9.7 0.00 0.00 0.00 61 1013.2
20260501204521 7 340 3.2 14.5 0.00 0.00 0.00 60 1013.0
20260501203013 7 232 0.0 1.6 0.00 0.00 0.00 61 1013.0
20260501201518 7 294 3.2 12.9 0.00 0.00 0.00 61 1013.0
20260501200017 7 333 0.0 9.7 0.00 0.00 0.00 62 1013.0
20260501194516 7 348 0.0 8.0 0.00 0.00 0.00 61 1013.0
20260501193009 7 294 1.6 9.7 0.00 0.00 0.00 60 1012.8
20260501191509 8 342 3.2 11.3 0.00 0.00 0.00 63 1012.7
20260501190008 8 315 3.2 9.7 0.00 0.00 0.00 61 1012.7
20260501184507 8 307 0.0 6.4 0.00 0.00 0.00 60 1012.4